Weather in Biskamzha

Russia / Republic of Khakassia     53°27′05″N   89°31′43″E
temp.,
°C
wind,
m/s
gust,
m/s
humid.,
%
clouds,
%
prec.,
mm/h
press.,
hPa
HPBL,
m
28 june, tue
tue2801:00+13sw1191100 0.2 99919
04:00+14wsw31094100 0.3 1000548
07:00+13wsw51296100 4.4 10031056
10:00+13wsw51174100 0.4 10071187
13:00+14wsw596275 0.5 10091292
16:00+15w355841 0.0 10101258
19:00+15wsw34570 0.0 10091003
22:00+9se00870 0.0 101010
29 june, wed
wed2901:00+7ne11920 0.0 101112
04:00+6ene11934 0.0 101011
07:00+11e017442 0.0 1009139
10:00+18sw13500 0.0 1006861
13:00+22w25410 0.0 10041705
16:00+24wsw46310 0.0 10022116
19:00+22nw015642 0.0 100118
22:00+14ene2163100 0.0 100112
30 june, thu
thu3001:00+12ne116999 0.0 100011
04:00+13e1165100 0.0 100010
07:00+16nnw0067100 0.0 100039
10:00+20wsw3454100 0.0 1001704
13:00+21w455798 0.0 1001937
16:00+18wsw366999 0.1 1002568
19:00+17wsw2367100 0.2 1003785
22:00+11wsw119619 0.0 100511
1 july, fri
fri101:00+9wnw119711 0.0 100610
04:00+8nw009739 0.0 100610
07:00+11s0089100 0.0 1005114
10:00+17wsw2361100 0.0 1004795
13:00+20wsw3649100 0.0 10031777
16:00+19w3553100 0.0 10041568
19:00+18w3757100 0.0 10041365
22:00+11wsw22854 0.0 100630
2 july, sat
sat201:00+7wsw1193100 0.0 100916
04:00+7wsw2293100 0.0 100823
07:00+10sw12752 0.0 1008213
10:00+16wsw354964 0.0 10071871
13:00+15wnw355384 0.1 10071031
16:00+18wnw474385 0.0 10062234
19:00+16wnw375349 0.0 10061431
22:00+8wsw119041 0.0 100710